• In Hungary
  • List of Countries
  • For 7 days
  • Water Temperature
  • Satellite Maps
  • Weather Map
  • News
  • Weather Widgets
  • user-avatar
    Login

    Hourly Weather Skroniow

    Today, 22 October, Monday

    Time Temperature Precipitation Wind Pressure Humidity
    00:00 +5°C° 0 mm 0 mps 747 mmHg 85%
    01:00 +5°C° 0 mm 0 mps 746 mmHg 86%
    02:00 +5°C° 0 mm 0 mps 746 mmHg 87%
    03:00 +4°C° 0 mm 0 mps 746 mmHg 88%
    04:00 +4°C° 0 mm 0 mps 746 mmHg 88%
    05:00 +4°C° 0 mm 0 mps 746 mmHg 88%
    06:00 +5°C° 0 mm 1 mps 746 mmHg 88%
    07:00 +5°C° 0 mm 1 mps 746 mmHg 87%
    08:00 +7°C° 0 mm 1 mps 745 mmHg 79%
    09:00 +9°C° 0 mm 1 mps 745 mmHg 70%
    10:00 +11°C° 0 mm 1 mps 745 mmHg 62%
    11:00 +12°C° 0 mm 1 mps 745 mmHg 59%
    12:00 +13°C° 0 mm 2 mps 744 mmHg 55%
    13:00 +14°C° 0 mm 2 mps 744 mmHg 52%
    14:00 +13°C° 0 mm 2 mps 743 mmHg 54%
    15:00 +13°C° 0 mm 2 mps 743 mmHg 57%
    16:00 +12°C° 0 mm 2 mps 743 mmHg 59%
    17:00 +10°C° 0 mm 2 mps 743 mmHg 62%
    18:00 +10°C° 0 mm 2 mps 743 mmHg 65%
    19:00 +9°C° 0 mm 3 mps 743 mmHg 68%
    20:00 +9°C° 0.3 mm 3 mps 743 mmHg 72%
    21:00 +8°C° 0.3 mm 4 mps 743 mmHg 75%
    22:00 +8°C° 0.3 mm 4 mps 743 mmHg 79%
    23:00 +8°C° 0.2 mm 4 mps 743 mmHg 80%

    Tomorrow, 23 October, Tuesday

    Time Temperature Precipitation Wind Pressure Humidity
    00:00 +7°C° 0.2 mm 4 mps 743 mmHg 82%
    01:00 +7°C° 0.2 mm 4 mps 743 mmHg 83%
    02:00 +6°C° 0 mm 4 mps 743 mmHg 86%
    03:00 +5°C° 0 mm 4 mps 743 mmHg 88%
    04:00 +4°C° 0 mm 4 mps 743 mmHg 90%
    05:00 +4°C° 0 mm 4 mps 742 mmHg 90%
    06:00 +4°C° 0 mm 4 mps 742 mmHg 89%
    07:00 +4°C° 0 mm 4 mps 742 mmHg 89%
    08:00 +5°C° 0 mm 5 mps 742 mmHg 82%
    09:00 +6°C° 0 mm 5 mps 741 mmHg 75%
    10:00 +7°C° 0 mm 6 mps 740 mmHg 68%
    11:00 +5°C° 0.5 mm 7 mps 739 mmHg 68%
    12:00 +5°C° 0.5 mm 7 mps 738 mmHg 68%
    13:00 +5°C° 0.5 mm 8 mps 737 mmHg 69%
    14:00 +5°C° 0.4 mm 8 mps 736 mmHg 70%
    15:00 +5°C° 0.4 mm 9 mps 734 mmHg 71%
    16:00 +6°C° 0.4 mm 9 mps 733 mmHg 72%
    17:00 +6°C° 1.1 mm 9 mps 732 mmHg 75%
    18:00 +6°C° 1.1 mm 10 mps 732 mmHg 78%
    19:00 +6°C° 1.1 mm 10 mps 731 mmHg 81%
    20:00 +6°C° 1.1 mm 10 mps 730 mmHg 81%
    21:00 +7°C° 1.1 mm 10 mps 729 mmHg 82%
    22:00 +8°C° 1.1 mm 10 mps 728 mmHg 82%
    23:00 +8°C° 1.2 mm 10 mps 727 mmHg 83%

    Day after tomorrow, 24 October, Wednesday

    Time Temperature Precipitation Wind Pressure Humidity
    00:00 +8°C° 1.2 mm 10 mps 726 mmHg 83%
    01:00 +8°C° 1.2 mm 10 mps 725 mmHg 83%
    02:00 +8°C° 1.9 mm 10 mps 724 mmHg 82%
    03:00 +7°C° 1.9 mm 10 mps 724 mmHg 81%
    04:00 +7°C° 1.9 mm 10 mps 723 mmHg 80%
    05:00 +6°C° 0.5 mm 10 mps 724 mmHg 74%
    06:00 +5°C° 0.5 mm 10 mps 725 mmHg 68%
    07:00 +2°C° 0.5 mm 10 mps 726 mmHg 62%
    08:00 +3°C° 0 mm 10 mps 727 mmHg 57%
    09:00 +3°C° 0 mm 11 mps 728 mmHg 52%
    10:00 +4°C° 0 mm 12 mps 728 mmHg 47%
    11:00 +4°C° 0.2 mm 12 mps 729 mmHg 51%
    12:00 +4°C° 0.2 mm 11 mps 729 mmHg 54%
    13:00 +4°C° 0.2 mm 11 mps 730 mmHg 57%
    14:00 +5°C° 0 mm 10 mps 731 mmHg 57%
    15:00 +3°C° 0 mm 10 mps 731 mmHg 56%
    16:00 +3°C° 0 mm 9 mps 732 mmHg 55%
    17:00 +3°C° 0 mm 9 mps 733 mmHg 56%
    18:00 +2°C° 0 mm 9 mps 733 mmHg 56%
    19:00 +2°C° 0 mm 8 mps 734 mmHg 57%
    20:00 +2°C° 0 mm 8 mps 734 mmHg 58%
    21:00 +1°C° 0 mm 8 mps 735 mmHg 60%
    22:00 +2°C° 0 mm 7 mps 735 mmHg 62%
    23:00 +2°C° 0 mm 7 mps 736 mmHg 65%

    25 October, Thursday

    Time Temperature Precipitation Wind Pressure Humidity
    00:00 +2°C° 0 mm 7 mps 736 mmHg 67%
    01:00 +2°C° 0 mm 6 mps 736 mmHg 70%
    02:00 +1°C° 0 mm 6 mps 736 mmHg 72%
    03:00 +1°C° 0 mm 6 mps 737 mmHg 73%
    04:00 +1°C° 0 mm 6 mps 737 mmHg 75%
    05:00 +1°C° 0 mm 6 mps 737 mmHg 78%
    06:00 +1°C° 0 mm 6 mps 737 mmHg 82%
    07:00 +1°C° 0 mm 6 mps 737 mmHg 85%
    08:00 +2°C° 0 mm 6 mps 737 mmHg 82%
    09:00 +3°C° 0 mm 6 mps 737 mmHg 79%
    10:00 +4°C° 0 mm 6 mps 737 mmHg 76%
    11:00 +4°C° 0.2 mm 7 mps 736 mmHg 78%
    12:00 +4°C° 0.2 mm 7 mps 736 mmHg 80%
    13:00 +5°C° 0.2 mm 7 mps 735 mmHg 82%
    14:00 +5°C° 0.1 mm 7 mps 735 mmHg 83%
    15:00 +6°C° 0.1 mm 7 mps 734 mmHg 83%
    16:00 +8°C° 0.1 mm 7 mps 734 mmHg 83%
    17:00 +8°C° 0.1 mm 7 mps 734 mmHg 84%
    18:00 +8°C° 0.1 mm 7 mps 734 mmHg 84%
    19:00 +8°C° 0.1 mm 7 mps 734 mmHg 84%
    20:00 +8°C° 0 mm 6 mps 734 mmHg 85%
    21:00 +8°C° 0 mm 6 mps 734 mmHg 85%
    22:00 +8°C° 0 mm 6 mps 735 mmHg 85%
    23:00 +8°C° 0 mm 6 mps 735 mmHg 86%

    26 October, Friday

    Time Temperature Precipitation Wind Pressure Humidity
    00:00 +7°C° 0 mm 6 mps 734 mmHg 86%
    01:00 +7°C° 0 mm 5 mps 734 mmHg 87%
    02:00 +7°C° 0 mm 5 mps 734 mmHg 87%
    03:00 +6°C° 0 mm 5 mps 734 mmHg 88%
    04:00 +6°C° 0 mm 5 mps 734 mmHg 89%
    05:00 +6°C° 0 mm 5 mps 734 mmHg 89%
    06:00 +6°C° 0 mm 4 mps 734 mmHg 90%
    07:00 +5°C° 0 mm 4 mps 734 mmHg 90%
    08:00 +7°C° 0 mm 5 mps 734 mmHg 84%
    09:00 +8°C° 0 mm 5 mps 734 mmHg 78%
    10:00 +10°C° 0 mm 5 mps 734 mmHg 71%
    11:00 +10°C° 0 mm 5 mps 733 mmHg 69%
    12:00 +12°C° 0 mm 5 mps 733 mmHg 66%
    13:00 +13°C° 0 mm 5 mps 732 mmHg 63%
    14:00 +12°C° 0 mm 5 mps 732 mmHg 65%
    15:00 +12°C° 0 mm 4 mps 732 mmHg 67%
    16:00 +12°C° 0 mm 4 mps 732 mmHg 69%
    17:00 +11°C° 0 mm 3 mps 732 mmHg 72%
    18:00 +10°C° 0 mm 3 mps 732 mmHg 76%
    19:00 +10°C° 0 mm 3 mps 731 mmHg 79%
    20:00 +9°C° 0 mm 3 mps 732 mmHg 80%
    21:00 +9°C° 0 mm 3 mps 732 mmHg 82%
    22:00 +9°C° 0 mm 3 mps 732 mmHg 83%
    23:00 +9°C° 0 mm 3 mps 731 mmHg 84%

    27 October, Saturday

    Time Temperature Precipitation Wind Pressure Humidity
    00:00 +8°C° 0 mm 2 mps 731 mmHg 85%
    01:00 +8°C° 0 mm 2 mps 731 mmHg 86%
    02:00 +8°C° 0 mm 2 mps 730 mmHg 86%
    03:00 +8°C° 0 mm 2 mps 730 mmHg 86%
    04:00 +7°C° 0 mm 2 mps 730 mmHg 86%
    05:00 +8°C° 0 mm 2 mps 729 mmHg 86%
    06:00 +8°C° 0 mm 2 mps 729 mmHg 86%
    07:00 +8°C° 0 mm 2 mps 729 mmHg 86%
    08:00 +9°C° 0 mm 2 mps 728 mmHg 81%
    09:00 +11°C° 0 mm 3 mps 728 mmHg 76%
    10:00 +13°C° 0 mm 3 mps 727 mmHg 71%
    11:00 +13°C° 0.1 mm 4 mps 727 mmHg 71%
    12:00 +14°C° 0.1 mm 4 mps 726 mmHg 71%
    13:00 +15°C° 0.1 mm 4 mps 726 mmHg 71%
    14:00 +15°C° 0.3 mm 4 mps 725 mmHg 72%
    15:00 +15°C° 0.3 mm 4 mps 725 mmHg 74%
    16:00 +14°C° 0.3 mm 4 mps 725 mmHg 76%
    17:00 +14°C° 0.1 mm 4 mps 725 mmHg 78%
    18:00 +13°C° 0.1 mm 4 mps 725 mmHg 81%
    19:00 +13°C° 0.1 mm 4 mps 725 mmHg 83%
    20:00 +12°C° 0.1 mm 3 mps 725 mmHg 86%
    21:00 +11°C° 0.1 mm 3 mps 726 mmHg 88%
    22:00 +11°C° 0.1 mm 3 mps 726 mmHg 91%
    23:00 +10°C° 0.2 mm 3 mps 726 mmHg 91%

    28 October, Sunday

    Time Temperature Precipitation Wind Pressure Humidity
    00:00 +10°C° 0.2 mm 3 mps 726 mmHg 91%
    01:00 +9°C° 0.2 mm 3 mps 727 mmHg 91%
    02:00 +9°C° 0.2 mm 3 mps 727 mmHg 91%
    03:00 +9°C° 0.2 mm 3 mps 727 mmHg 91%
    04:00 +9°C° 0.2 mm 2 mps 727 mmHg 91%
    05:00 +8°C° 1.1 mm 2 mps 727 mmHg 92%
    06:00 +8°C° 1.1 mm 3 mps 727 mmHg 92%
    07:00 +8°C° 1.1 mm 3 mps 727 mmHg 93%
    08:00 +8°C° 1.2 mm 3 mps 728 mmHg 92%
    09:00 +8°C° 1.2 mm 3 mps 728 mmHg 92%
    10:00 +8°C° 1.2 mm 2 mps 728 mmHg 91%
    11:00 +9°C° 0.4 mm 2 mps 728 mmHg 90%
    12:00 +9°C° 0.4 mm 2 mps 728 mmHg 89%
    13:00 +10°C° 0.4 mm 2 mps 728 mmHg 88%
    14:00 +10°C° 0.2 mm 2 mps 728 mmHg 89%
    15:00 +10°C° 0.2 mm 2 mps 728 mmHg 91%
    16:00 +9°C° 0.2 mm 2 mps 728 mmHg 92%
    17:00 +10°C° 0 mm 1 mps 729 mmHg 93%
    18:00 +10°C° 0 mm 1 mps 729 mmHg 93%
    19:00 +10°C° 0 mm 1 mps 729 mmHg 94%
    20:00 +10°C° 0 mm 1 mps 729 mmHg 93%
    21:00 +11°C° 0 mm 1 mps 730 mmHg 93%
    22:00 +11°C° 0 mm 1 mps 730 mmHg 92%
    23:00 +11°C° 0 mm 1 mps 730 mmHg 93%
    Show more